sat.trackr.live / text

‹ back to catalog

STARLINK-35409

NORAD 66196 · 2025-243V

PAYLOAD ACTIVE UNKNOWN

§ Identity

Operator
Country
US
Launch date
2025-10-26
Launch site
AFETR
Launch vehicle
Mass (kg)
RCS (m²)

Purposes: comms

External: N2YO · Heavens-Above · Gunter

§ Orbital elements

Epoch: 2026-05-24T15:33:18.368928Z

Period
94.11 min
Inclination
53.1566°
Eccentricity
0.0001469
Mean motion
15.30186153 rev/d
Perigee alt
474.2 km
Apogee alt
476.3 km
Semi-major
6,853.4 km
B*
5.1364e-4
RAAN
252.4155°
Arg perigee
75.4068°
Mean anomaly
284.7095°
Rev number
3,228

§ Raw data

STARLINK-354091 66196U 25243V   26144.64812927  .00014877  00000+0  51364-3 0  99982 66196  53.1566 252.4155 0001469  75.4068 284.7095 15.30186153 32283

JSON: /api/v1/satellites/66196 · /tle

For live sub-satellite position, see the globe view (requires WebGL).

§ Visibility from observer

Set your observer location to see the next 7 days of passes ≥ 10°. The values pass through the URL so the page stays shareable.

No JS? Fill the form by hand. The geolocation button needs JavaScript.